Location: Madrid
(40.4000°N, 3.6830°W)
Time: 01:16:24
(UTC+02:00)

ISS - Pass Details

Date: 12 July 2019
Orbit: 409 x 418 km, 51.6° (Epoch: 23 July)

Event Time Altitude Azimuth Distance (km) Brightness Sun altitude
Exits shadow 03:11:46 19° 335° (NNW) 1,052 -1.2 -26.4°
Maximum altitude 03:11:59 19° 340° (NNW) 1,048 -1.2 -26.4°
Drops below altitude 10° 03:14:27 10° 29° (NNE) 1,481 0.0 -26.3°
Sets 03:16:58 0° 48° (NE) 2,343 0.9 -26.2°
